| time (UTC) | temp F | wind direction | speed MPH | gust MPH | rain 1hr in | rain 24hr in | rain mn in | humidity % | barometer mb |
| 20260905171450 | 76 | 170 | 1.0 | 2.0 | 0.00 | 0.00 | 0.00 | 68 | 4104.4 |
| 20260905170946 | 75 | 141 | 2.0 | 2.0 | 0.00 | 0.00 | 0.00 | 69 | 4104.4 |
| 20260905170442 | 75 | 177 | 1.0 | 2.0 | 0.00 | 0.00 | 0.00 | 69 | 4104.4 |
| 20260905165941 | 75 | 130 | 0.0 | 1.0 | 0.00 | 0.00 | 0.00 | 72 | 4104.4 |
| 20260905165436 | 75 | 132 | 1.0 | 2.0 | 0.00 | 0.00 | 0.00 | 70 | 4104.4 |
| 20260905164932 | 75 | 144 | 1.0 | 2.0 | 0.00 | 0.00 | 0.00 | 71 | 4104.9 |
| 20260905164426 | 75 | 133 | 0.0 | 1.0 | 0.00 | 0.00 | 0.00 | 72 | 4104.9 |
| 20260905163921 | 74 | 157 | 2.0 | 2.0 | 0.00 | 0.00 | 0.00 | 73 | 4104.9 |
| 20260905163418 | 75 | 133 | 1.0 | 1.0 | 0.00 | 0.00 | 0.00 | 71 | 4104.9 |
| 20260905162914 | 76 | 176 | 2.0 | 3.0 | 0.00 | 0.00 | 0.00 | 71 | 4104.9 |
| 20260905162408 | 75 | 155 | 0.0 | 1.0 | 0.00 | 0.00 | 0.00 | 73 | 4104.9 |
| 20260905161903 | 75 | 154 | 1.0 | 2.0 | 0.00 | 0.00 | 0.00 | 75 | 4104.4 |
| 20260905161403 | 74 | 152 | 1.0 | 2.0 | 0.00 | 0.00 | 0.00 | 76 | 4104.9 |
| 20260905160901 | 73 | 139 | 2.0 | 3.0 | 0.00 | 0.00 | 0.00 | 77 | 4104.9 |
| 20260905160354 | 73 | 141 | 2.0 | 2.0 | 0.00 | 0.00 | 0.00 | 78 | 4104.9 |
| 20260905155849 | 73 | 127 | 2.0 | 2.0 | 0.00 | 0.00 | 0.00 | 79 | 4104.9 |
| 20260905155343 | 72 | 119 | 3.0 | 3.0 | 0.00 | 0.00 | 0.00 | 83 | 4104.9 |
| 20260905154842 | 71 | 143 | 0.0 | 1.0 | 0.00 | 0.00 | 0.00 | 82 | 4104.9 |
| 20260905154338 | 72 | 141 | 1.0 | 1.0 | 0.00 | 0.00 | 0.00 | 84 | 4104.9 |
| 20260905153833 | 73 | 139 | 2.0 | 2.0 | 0.00 | 0.00 | 0.00 | 81 | 4104.4 |
| 20260905153330 | 72 | 135 | 1.0 | 1.0 | 0.00 | 0.00 | 0.00 | 83 | 4104.4 |
| 20260905152829 | 73 | 151 | 1.0 | 2.0 | 0.00 | 0.00 | 0.00 | 83 | 4104.4 |
| 20260905152328 | 73 | 142 | 0.0 | 1.0 | 0.00 | 0.00 | 0.00 | 80 | 4104.1 |
| 20260905151824 | 74 | 134 | 2.0 | 3.0 | 0.00 | 0.00 | 0.00 | 81 | 4104.4 |
| 20260905151319 | 73 | 99 | 1.0 | 1.0 | 0.00 | 0.00 | 0.00 | 82 | 4104.4 |
| 20260905150819 | 73 | 130 | 1.0 | 1.0 | 0.00 | 0.00 | 0.00 | 81 | 4104.4 |
| 20260905150313 | 73 | 133 | 0.0 | 0.0 | 0.00 | 0.00 | 0.00 | 83 | 4104.4 |
| 20260905145811 | 72 | 141 | 1.0 | 2.0 | 0.00 | 0.00 | 0.00 | 82 | 4104.4 |
| 20260905145311 | 73 | 123 | 1.0 | 2.0 | 0.00 | 0.00 | 0.00 | 84 | 4104.1 |
| 20260905144810 | 72 | 121 | 0.0 | 0.0 | 0.00 | 0.00 | 0.00 | 86 | 4104.1 |
| 20260905144306 | 72 | 154 | 1.0 | 1.0 | 0.00 | 0.00 | 0.00 | 84 | 4104.1 |
| 20260905143804 | 72 | 124 | 0.0 | 0.0 | 0.00 | 0.00 | 0.00 | 85 | 4103.8 |
| 20260905143259 | 72 | 116 | 0.0 | 0.0 | 0.00 | 0.00 | 0.00 | 86 | 4103.8 |
| 20260905142757 | 71 | 152 | 1.0 | 2.0 | 0.00 | 0.00 | 0.00 | 86 | 4103.8 |
| 20260905142252 | 71 | 134 | 0.0 | 0.0 | 0.00 | 0.00 | 0.00 | 91 | 4103.8 |
| 20260905141748 | 71 | 116 | 0.0 | 0.0 | 0.00 | 0.00 | 0.00 | 89 | 4103.8 |
| 20260905141244 | 70 | 138 | 1.0 | 1.0 | 0.00 | 0.00 | 0.00 | 89 | 4103.8 |
| 20260905140739 | 69 | 135 | 1.0 | 1.0 | 0.00 | 0.00 | 0.00 | 93 | 4103.8 |
| 20260905140233 | 69 | 93 | 2.0 | 2.0 | 0.00 | 0.00 | 0.00 | 92 | 4103.4 |
| 20260905135732 | 69 | 114 | 0.0 | 0.0 | 0.00 | 0.00 | 0.00 | 94 | 4103.8 |
| 20260905135229 | 68 | 109 | 0.0 | 0.0 | 0.00 | 0.00 | 0.00 | 96 | 4103.8 |
| 20260905134727 | 68 | 128 | 0.0 | 1.0 | 0.00 | 0.00 | 0.00 | 96 | 4103.8 |
| 20260905134226 | 67 | 94 | 0.0 | 0.0 | 0.00 | 0.00 | 0.00 | 98 | 4103.8 |
| 20260905133721 | 66 | 96 | 0.0 | 0.0 | 0.00 | 0.00 | 0.00 | 99 | 4103.4 |
| 20260905133217 | 65 | 111 | 2.0 | 2.0 | 0.00 | 0.00 | 0.00 | 99 | 4103.8 |
| 20260905132716 | 64 | 110 | 0.0 | 0.0 | 0.00 | 0.00 | 0.00 | 99 | 4103.8 |
| 20260905132212 | 64 | 108 | 0.0 | 0.0 | 0.00 | 0.00 | 0.00 | 99 | 4103.8 |
| 20260905131706 | 63 | 119 | 0.0 | 0.0 | 0.00 | 0.00 | 0.00 | 99 | 4103.4 |
| 20260905131202 | 63 | 101 | 1.0 | 2.0 | 0.00 | 0.00 | 0.00 | 99 | 4103.8 |
| 20260905130656 | 62 | 117 | 0.0 | 0.0 | 0.00 | 0.00 | 0.00 | 99 | 4103.8 |
| 20260905130155 | 62 | 113 | 0.0 | 0.0 | 0.00 | 0.00 | 0.00 | 99 | 4103.8 |
| 20260905125650 | 62 | 105 | 0.0 | 1.0 | 0.00 | 0.00 | 0.00 | 99 | 4103.4 |
| 20260905125146 | 61 | 346 | 2.0 | 3.0 | 0.00 | 0.00 | 0.00 | 99 | 4103.4 |
| 20260905124642 | 61 | 87 | 1.0 | 2.0 | 0.00 | 0.00 | 0.00 | 99 | 4103.8 |
| 20260905124138 | 60 | 129 | 0.0 | 0.0 | 0.00 | 0.00 | 0.00 | 99 | 4103.4 |
| 20260905123633 | 60 | 97 | 0.0 | 0.0 | 0.00 | 0.00 | 0.00 | 99 | 4103.4 |
| 20260905123130 | 60 | 87 | 0.0 | 1.0 | 0.00 | 0.00 | 0.00 | 99 | 4103.4 |
| 20260905122630 | 60 | 110 | 0.0 | 0.0 | 0.00 | 0.00 | 0.00 | 99 | 4103.4 |
| 20260905122124 | 59 | 109 | 0.0 | 0.0 | 0.00 | 0.00 | 0.00 | 99 | 4103.4 |
| 20260905121619 | 59 | 108 | 0.0 | 0.0 | 0.00 | 0.00 | 0.00 | 99 | 4103.4 |
| 20260905121114 | 59 | 110 | 0.0 | 0.0 | 0.00 | 0.00 | 0.00 | 99 | 4103.4 |
| 20260905120608 | 59 | 109 | 0.0 | 0.0 | 0.00 | 0.00 | 0.00 | 99 | 4103.4 |
| 20260905120103 | 59 | 100 | 0.0 | 0.0 | 0.00 | 0.00 | 0.00 | 99 | 4103.1 |
| 20260905115602 | 58 | 112 | 1.0 | 1.0 | 0.00 | 0.00 | 0.00 | 99 | 4103.1 |
| 20260905115057 | 58 | 109 | 0.0 | 0.0 | 0.00 | 0.00 | 0.00 | 99 | 4103.4 |
| 20260905114556 | 58 | 87 | 0.0 | 0.0 | 0.00 | 0.00 | 0.00 | 99 | 4103.4 |
| 20260905114055 | 58 | 87 | 0.0 | 0.0 | 0.00 | 0.00 | 0.00 | 99 | 4103.1 |
| 20260905113550 | 58 | 87 | 0.0 | 0.0 | 0.00 | 0.00 | 0.00 | 99 | 4103.1 |
| 20260905113045 | 58 | 87 | 0.0 | 0.0 | 0.00 | 0.00 | 0.00 | 99 | 4103.1 |
| 20260905112541 | 57 | 86 | 0.0 | 0.0 | 0.00 | 0.00 | 0.00 | 99 | 4103.1 |
| 20260905112036 | 57 | 86 | 0.0 | 0.0 | 0.00 | 0.00 | 0.00 | 99 | 4103.1 |
| 20260905111531 | 58 | 86 | 0.0 | 0.0 | 0.00 | 0.00 | 0.00 | 99 | 4103.1 |
| 20260905111030 | 58 | 85 | 0.0 | 0.0 | 0.00 | 0.00 | 0.00 | 99 | 4103.1 |
| 20260905110529 | 58 | 85 | 0.0 | 0.0 | 0.00 | 0.00 | 0.00 | 99 | 4102.7 |
| 20260905110024 | 58 | 85 | 0.0 | 0.0 | 0.00 | 0.00 | 0.00 | 99 | 4102.7 |
| 20260905105519 | 58 | 85 | 0.0 | 0.0 | 0.00 | 0.00 | 0.00 | 99 | 4103.1 |
| 20260905105013 | 58 | 85 | 0.0 | 0.0 | 0.00 | 0.00 | 0.00 | 99 | 4103.1 |
| 20260905104509 | 58 | 85 | 0.0 | 0.0 | 0.00 | 0.00 | 0.00 | 99 | 4103.1 |
| 20260905104008 | 58 | 85 | 0.0 | 0.0 | 0.00 | 0.00 | 0.00 | 99 | 4103.1 |
| 20260905103504 | 58 | 85 | 0.0 | 0.0 | 0.00 | 0.00 | 0.00 | 99 | 4102.7 |
| 20260905103000 | 58 | 85 | 0.0 | 0.0 | 0.00 | 0.00 | 0.00 | 99 | 4103.1 |
| 20260905102455 | 58 | 85 | 0.0 | 0.0 | 0.00 | 0.00 | 0.00 | 99 | 4102.7 |
| 20260905101951 | 58 | 85 | 0.0 | 0.0 | 0.00 | 0.00 | 0.00 | 99 | 4103.1 |
| 20260905101450 | 57 | 85 | 0.0 | 0.0 | 0.00 | 0.00 | 0.00 | 99 | 4102.7 |
| 20260905100949 | 57 | 85 | 0.0 | 0.0 | 0.00 | 0.00 | 0.00 | 99 | 4103.1 |
| 20260905100445 | 57 | 85 | 0.0 | 0.0 | 0.00 | 0.00 | 0.00 | 99 | 4102.7 |
| 20260905095943 | 57 | 85 | 0.0 | 0.0 | 0.00 | 0.00 | 0.00 | 99 | 4102.4 |
| 20260905095438 | 57 | 85 | 0.0 | 0.0 | 0.00 | 0.00 | 0.00 | 99 | 4102.7 |
| 20260905094933 | 57 | 85 | 0.0 | 0.0 | 0.00 | 0.00 | 0.00 | 99 | 4103.1 |
| 20260905094429 | 57 | 85 | 0.0 | 0.0 | 0.00 | 0.00 | 0.00 | 99 | 4102.7 |
| 20260905093928 | 57 | 85 | 0.0 | 0.0 | 0.00 | 0.00 | 0.00 | 99 | 4102.7 |
| 20260905093423 | 58 | 85 | 0.0 | 0.0 | 0.00 | 0.00 | 0.00 | 99 | 4102.7 |
| 20260905092919 | 58 | 85 | 0.0 | 0.0 | 0.00 | 0.00 | 0.00 | 99 | 4102.7 |
| 20260905092414 | 58 | 85 | 0.0 | 0.0 | 0.00 | 0.00 | 0.00 | 99 | 4102.7 |
| 20260905091909 | 58 | 85 | 0.0 | 0.0 | 0.00 | 0.00 | 0.00 | 99 | 4102.7 |
| 20260905091408 | 58 | 85 | 0.0 | 0.0 | 0.00 | 0.00 | 0.00 | 99 | 4102.7 |
| 20260905090907 | 57 | 85 | 0.0 | 0.0 | 0.00 | 0.00 | 0.00 | 99 | 4102.4 |
| 20260905090403 | 57 | 85 | 0.0 | 0.0 | 0.00 | 0.00 | 0.00 | 99 | 4102.7 |
| 20260905085902 | 57 | 84 | 0.0 | 0.0 | 0.00 | 0.00 | 0.00 | 99 | 4102.4 |
| 20260905085356 | 57 | 84 | 0.0 | 0.0 | 0.00 | 0.00 | 0.00 | 99 | 4102.7 |
| 20260905084853 | 58 | 84 | 0.0 | 0.0 | 0.00 | 0.00 | 0.00 | 99 | 4102.7 |
| 20260905084351 | 58 | 84 | 0.0 | 0.0 | 0.00 | 0.00 | 0.00 | 99 | 4102.7 |
| 20260905083847 | 58 | 84 | 0.0 | 0.0 | 0.00 | 0.00 | 0.00 | 99 | 4102.7 |
| 20260905083343 | 58 | 84 | 0.0 | 0.0 | 0.00 | 0.00 | 0.00 | 99 | 4102.7 |
| 20260905082838 | 57 | 84 | 0.0 | 0.0 | 0.00 | 0.00 | 0.00 | 99 | 4102.4 |
| 20260905082334 | 57 | 84 | 0.0 | 0.0 | 0.00 | 0.00 | 0.00 | 99 | 4102.7 |
| 20260905081829 | 58 | 84 | 0.0 | 0.0 | 0.00 | 0.00 | 0.00 | 99 | 4102.4 |
| 20260905081324 | 58 | 84 | 0.0 | 0.0 | 0.00 | 0.00 | 0.00 | 99 | 4102.7 |
| 20260905080823 | 58 | 84 | 0.0 | 0.0 | 0.00 | 0.00 | 0.00 | 99 | 4102.7 |
| 20260905080318 | 58 | 84 | 0.0 | 0.0 | 0.00 | 0.00 | 0.00 | 99 | 4102.7 |
| 20260905075817 | 58 | 84 | 0.0 | 0.0 | 0.00 | 0.00 | 0.00 | 99 | 4102.7 |
| 20260905075316 | 58 | 84 | 0.0 | 0.0 | 0.00 | 0.00 | 0.00 | 99 | 4102.7 |
| 20260905074815 | 58 | 85 | 0.0 | 0.0 | 0.00 | 0.00 | 0.00 | 99 | 4102.4 |
| 20260905074311 | 58 | 85 | 0.0 | 0.0 | 0.00 | 0.00 | 0.00 | 99 | 4102.7 |
| 20260905073806 | 58 | 84 | 0.0 | 0.0 | 0.00 | 0.00 | 0.00 | 99 | 4102.4 |
| 20260905073302 | 58 | 84 | 0.0 | 0.0 | 0.00 | 0.00 | 0.00 | 99 | 4102.4 |
| 20260905072756 | 58 | 85 | 0.0 | 0.0 | 0.00 | 0.00 | 0.00 | 99 | 4102.4 |
| 20260905072251 | 58 | 86 | 0.0 | 0.0 | 0.00 | 0.00 | 0.00 | 99 | 4102.4 |
| 20260905071748 | 58 | 88 | 0.0 | 0.0 | 0.00 | 0.00 | 0.00 | 99 | 4102.4 |
| 20260905071244 | 58 | 90 | 0.0 | 0.0 | 0.00 | 0.00 | 0.00 | 99 | 4102.1 |
| 20260905070738 | 58 | 91 | 0.0 | 0.0 | 0.00 | 0.00 | 0.00 | 99 | 4102.4 |
| 20260905070234 | 58 | 91 | 0.0 | 0.0 | 0.00 | 0.00 | 0.00 | 99 | 4102.4 |
| 20260905065732 | 59 | 91 | 0.0 | 0.0 | 0.00 | 0.00 | 0.00 | 99 | 4102.4 |
| 20260905065226 | 59 | 91 | 0.0 | 0.0 | 0.00 | 0.00 | 0.00 | 99 | 4102.4 |
| 20260905064717 | 59 | 91 | 0.0 | 0.0 | 0.00 | 0.00 | 0.00 | 99 | 4102.4 |
| 20260905064213 | 59 | 92 | 0.0 | 0.0 | 0.00 | 0.00 | 0.00 | 99 | 4102.4 |
| 20260905063711 | 59 | 92 | 0.0 | 0.0 | 0.00 | 0.00 | 0.00 | 99 | 4102.4 |
| 20260905063207 | 59 | 92 | 0.0 | 0.0 | 0.00 | 0.00 | 0.00 | 99 | 4102.1 |
| 20260905062703 | 58 | 92 | 0.0 | 0.0 | 0.00 | 0.00 | 0.00 | 99 | 4102.4 |
| 20260905062202 | 59 | 92 | 0.0 | 0.0 | 0.00 | 0.00 | 0.00 | 99 | 4102.4 |
| 20260905061702 | 59 | 91 | 0.0 | 0.0 | 0.00 | 0.00 | 0.00 | 99 | 4102.4 |
| 20260905061156 | 59 | 92 | 0.0 | 0.0 | 0.00 | 0.00 | 0.00 | 99 | 4102.4 |
| 20260905060652 | 59 | 95 | 0.0 | 0.0 | 0.00 | 0.00 | 0.00 | 99 | 4102.4 |
| 20260905060148 | 59 | 94 | 0.0 | 0.0 | 0.00 | 0.00 | 0.00 | 99 | 4102.7 |
| 20260905055646 | 59 | 95 | 0.0 | 0.0 | 0.00 | 0.00 | 0.00 | 99 | 4102.4 |
| 20260905055142 | 59 | 95 | 0.0 | 0.0 | 0.00 | 0.00 | 0.00 | 99 | 4102.4 |
| 20260905054637 | 59 | 95 | 0.0 | 0.0 | 0.00 | 0.00 | 0.00 | 99 | 4102.7 |
| 20260905054133 | 59 | 95 | 0.0 | 0.0 | 0.00 | 0.00 | 0.00 | 99 | 4102.7 |
| 20260905053632 | 59 | 95 | 0.0 | 0.0 | 0.00 | 0.00 | 0.00 | 99 | 4102.7 |
| 20260905053127 | 59 | 95 | 0.0 | 0.0 | 0.00 | 0.00 | 0.00 | 99 | 4102.4 |
| 20260905052626 | 60 | 95 | 0.0 | 0.0 | 0.00 | 0.00 | 0.00 | 99 | 4102.4 |
| 20260905052121 | 60 | 95 | 0.0 | 0.0 | 0.00 | 0.00 | 0.00 | 99 | 4102.4 |
| 20260905051617 | 60 | 95 | 0.0 | 0.0 | 0.00 | 0.00 | 0.00 | 99 | 4102.4 |
| 20260905051114 | 60 | 95 | 0.0 | 0.0 | 0.00 | 0.00 | 0.00 | 99 | 4102.4 |
| 20260905050609 | 60 | 95 | 0.0 | 0.0 | 0.00 | 0.00 | 0.00 | 99 | 4102.4 |
| 20260905050106 | 60 | 95 | 0.0 | 0.0 | 0.00 | 0.00 | 0.00 | 99 | 4102.4 |
| 20260905045600 | 60 | 95 | 0.0 | 0.0 | 0.00 | 0.00 | 0.00 | 99 | 4102.4 |
| 20260905045056 | 60 | 94 | 0.0 | 0.0 | 0.00 | 0.00 | 0.00 | 99 | 4102.4 |
| 20260905044555 | 60 | 95 | 0.0 | 0.0 | 0.00 | 0.00 | 0.00 | 99 | 4102.4 |
| 20260905044050 | 60 | 95 | 0.0 | 0.0 | 0.00 | 0.00 | 0.00 | 99 | 4102.4 |
| 20260905043549 | 60 | 95 | 0.0 | 0.0 | 0.00 | 0.00 | 0.00 | 99 | 4102.1 |
| 20260905043045 | 60 | 95 | 0.0 | 0.0 | 0.00 | 0.00 | 0.00 | 99 | 4102.4 |
| 20260905042543 | 60 | 95 | 0.0 | 0.0 | 0.00 | 0.00 | 0.00 | 99 | 4102.1 |
| 20260905042038 | 60 | 95 | 0.0 | 0.0 | 0.00 | 0.00 | 0.00 | 99 | 4102.4 |
| 20260905041534 | 60 | 95 | 0.0 | 0.0 | 0.00 | 0.00 | 0.00 | 99 | 4102.4 |
| 20260905041029 | 60 | 95 | 0.0 | 0.0 | 0.00 | 0.00 | 0.00 | 99 | 4102.4 |
| 20260905040528 | 60 | 95 | 0.0 | 0.0 | 0.00 | 0.00 | 0.00 | 99 | 4102.4 |
| 20260905040027 | 60 | 95 | 0.0 | 0.0 | 0.00 | 0.10 | 0.10 | 99 | 4102.4 |
| 20260905035522 | 60 | 95 | 0.0 | 0.0 | 0.00 | 0.10 | 0.10 | 99 | 4102.1 |
| 20260905035020 | 60 | 95 | 0.0 | 0.0 | 0.00 | 0.10 | 0.10 | 99 | 4102.4 |
| 20260905034515 | 61 | 95 | 0.0 | 0.0 | 0.00 | 0.10 | 0.10 | 99 | 4102.4 |
| 20260905034014 | 61 | 95 | 0.0 | 0.0 | 0.00 | 0.10 | 0.10 | 99 | 4102.4 |
| 20260905033509 | 61 | 95 | 0.0 | 0.0 | 0.00 | 0.10 | 0.10 | 99 | 4102.4 |
| 20260905033005 | 61 | 95 | 0.0 | 0.0 | 0.00 | 0.10 | 0.10 | 99 | 4102.4 |
| 20260905032500 | 61 | 95 | 0.0 | 0.0 | 0.00 | 0.10 | 0.10 | 99 | 4102.7 |
| 20260905031955 | 61 | 95 | 0.0 | 0.0 | 0.00 | 0.10 | 0.10 | 99 | 4102.4 |
| 20260905031450 | 61 | 96 | 0.0 | 0.0 | 0.00 | 0.10 | 0.10 | 99 | 4102.4 |
| 20260905030945 | 61 | 96 | 0.0 | 0.0 | 0.00 | 0.10 | 0.10 | 99 | 4102.7 |
| 20260905030441 | 62 | 96 | 0.0 | 0.0 | 0.00 | 0.10 | 0.10 | 99 | 4102.7 |
| 20260905025939 | 62 | 96 | 0.0 | 0.0 | 0.00 | 0.10 | 0.10 | 99 | 4102.4 |
| 20260905025435 | 62 | 96 | 0.0 | 0.0 | 0.00 | 0.10 | 0.10 | 99 | 4102.4 |
| 20260905024932 | 62 | 96 | 0.0 | 0.0 | 0.00 | 0.10 | 0.10 | 99 | 4102.7 |
| 20260905024432 | 62 | 96 | 0.0 | 0.0 | 0.00 | 0.10 | 0.10 | 99 | 4102.4 |
| 20260905023927 | 62 | 96 | 0.0 | 0.0 | 0.00 | 0.10 | 0.10 | 99 | 4102.4 |
| 20260905023422 | 62 | 96 | 0.0 | 0.0 | 0.00 | 0.10 | 0.10 | 99 | 4102.4 |
| 20260905022921 | 62 | 96 | 0.0 | 0.0 | 0.00 | 0.10 | 0.10 | 99 | 4102.4 |
| 20260905022417 | 62 | 96 | 0.0 | 0.0 | 0.00 | 0.10 | 0.10 | 99 | 4102.7 |
| 20260905021911 | 62 | 96 | 0.0 | 0.0 | 0.00 | 0.10 | 0.10 | 99 | 4102.4 |
| 20260905021406 | 62 | 97 | 0.0 | 0.0 | 0.00 | 0.10 | 0.10 | 99 | 4102.7 |
| 20260905020901 | 62 | 96 | 0.0 | 0.0 | 0.00 | 0.10 | 0.10 | 99 | 4102.4 |
| 20260905020400 | 62 | 96 | 0.0 | 0.0 | 0.00 | 0.10 | 0.10 | 99 | 4102.7 |
| 20260905015855 | 62 | 97 | 0.0 | 0.0 | 0.00 | 0.10 | 0.10 | 99 | 4102.7 |
| 20260905015354 | 62 | 97 | 0.0 | 0.0 | 0.00 | 0.10 | 0.10 | 99 | 4102.7 |
| 20260905014853 | 62 | 97 | 0.0 | 0.0 | 0.00 | 0.10 | 0.10 | 99 | 4102.4 |
| 20260905014349 | 63 | 96 | 0.0 | 0.0 | 0.00 | 0.10 | 0.10 | 99 | 4102.7 |
| 20260905013844 | 63 | 96 | 0.0 | 0.0 | 0.00 | 0.10 | 0.10 | 99 | 4102.4 |
| 20260905013340 | 63 | 96 | 0.0 | 0.0 | 0.00 | 0.10 | 0.10 | 99 | 4102.4 |
| 20260905012835 | 63 | 96 | 0.0 | 0.0 | 0.00 | 0.10 | 0.10 | 99 | 4102.4 |
| 20260905012331 | 63 | 84 | 0.0 | 0.0 | 0.00 | 0.10 | 0.10 | 99 | 4102.4 |
| 20260905011828 | 64 | 71 | 0.0 | 0.0 | 0.00 | 0.10 | 0.10 | 99 | 4102.4 |
| 20260905011327 | 64 | 66 | 1.0 | 1.0 | 0.00 | 0.10 | 0.10 | 99 | 4102.4 |
| 20260905010823 | 64 | 63 | 1.0 | 1.0 | 0.00 | 0.10 | 0.10 | 99 | 4102.1 |
| 20260905010318 | 64 | 55 | 0.0 | 0.0 | 0.00 | 0.10 | 0.10 | 99 | 4102.4 |
| 20260905005814 | 64 | 56 | 0.0 | 0.0 | 0.00 | 0.10 | 0.10 | 99 | 4102.1 |
| 20260905005309 | 64 | 55 | 0.0 | 0.0 | 0.00 | 0.10 | 0.10 | 99 | 4102.1 |
| 20260905004804 | 64 | 42 | 0.0 | 1.0 | 0.00 | 0.10 | 0.10 | 99 | 4102.4 |
| 20260905004259 | 64 | 54 | 0.0 | 0.0 | 0.00 | 0.10 | 0.10 | 99 | 4102.1 |
| 20260905003754 | 64 | 103 | 0.0 | 1.0 | 0.00 | 0.10 | 0.10 | 99 | 4102.1 |
| 20260905003250 | 65 | 112 | 0.0 | 1.0 | 0.00 | 0.10 | 0.10 | 99 | 4102.1 |
| 20260905002746 | 65 | 116 | 0.0 | 1.0 | 0.00 | 0.10 | 0.10 | 99 | 4102.1 |
| 20260905002245 | 65 | 122 | 0.0 | 0.0 | 0.00 | 0.10 | 0.10 | 99 | 4102.1 |
| 20260905001741 | 66 | 123 | 0.0 | 0.0 | 0.00 | 0.10 | 0.10 | 99 | 4102.1 |
| 20260905001239 | 66 | 123 | 0.0 | 0.0 | 0.00 | 0.10 | 0.10 | 99 | 4101.7 |
| 20260905000735 | 66 | 124 | 0.0 | 0.0 | 0.00 | 0.10 | 0.10 | 99 | 4102.1 |
| 20260905000233 | 66 | 122 | 0.0 | 0.0 | 0.00 | 0.10 | 0.10 | 99 | 4102.1 |
| 20260904235726 | 66 | 123 | 0.0 | 0.0 | 0.00 | 0.10 | 0.10 | 99 | 4102.1 |
| 20260904235220 | 67 | 123 | 0.0 | 0.0 | 0.00 | 0.10 | 0.10 | 98 | 4102.1 |
| 20260904234715 | 67 | 123 | 0.0 | 0.0 | 0.00 | 0.10 | 0.10 | 97 | 4102.1 |
| 20260904234211 | 67 | 123 | 0.0 | 0.0 | 0.00 | 0.10 | 0.10 | 97 | 4101.7 |
| 20260904233707 | 68 | 123 | 0.0 | 0.0 | 0.00 | 0.10 | 0.10 | 97 | 4102.1 |
| 20260904233202 | 68 | 123 | 0.0 | 0.0 | 0.00 | 0.10 | 0.10 | 95 | 4101.7 |
| 20260904232659 | 69 | 124 | 0.0 | 0.0 | 0.00 | 0.10 | 0.10 | 95 | 4101.7 |
| 20260904232154 | 69 | 124 | 0.0 | 0.0 | 0.00 | 0.10 | 0.10 | 95 | 4101.7 |
| 20260904231644 | 69 | 123 | 0.0 | 0.0 | 0.00 | 0.10 | 0.10 | 94 | 4101.7 |
| 20260904231139 | 69 | 123 | 0.0 | 0.0 | 0.00 | 0.10 | 0.10 | 94 | 4101.7 |
| 20260904230638 | 69 | 123 | 0.0 | 0.0 | 0.00 | 0.10 | 0.10 | 94 | 4102.1 |
| 20260904230134 | 69 | 123 | 0.0 | 0.0 | 0.00 | 0.10 | 0.10 | 94 | 4101.7 |
| 20260904225632 | 69 | 123 | 0.0 | 0.0 | 0.00 | 0.10 | 0.10 | 94 | 4101.7 |
| 20260904225127 | 69 | 124 | 0.0 | 0.0 | 0.00 | 0.10 | 0.10 | 94 | 4101.7 |
| 20260904224621 | 69 | 131 | 2.0 | 2.0 | 0.00 | 0.10 | 0.10 | 93 | 4101.7 |
| 20260904224116 | 70 | 134 | 0.0 | 0.0 | 0.00 | 0.10 | 0.10 | 93 | 4101.4 |
| 20260904223615 | 69 | 135 | 0.0 | 0.0 | 0.00 | 0.10 | 0.10 | 93 | 4101.4 |
| 20260904223110 | 69 | 135 | 0.0 | 1.0 | 0.00 | 0.10 | 0.10 | 94 | 4101.7 |
| 20260904222607 | 70 | 126 | 0.0 | 1.0 | 0.00 | 0.10 | 0.10 | 94 | 4101.4 |
| 20260904222101 | 70 | 127 | 0.0 | 1.0 | 0.00 | 0.10 | 0.10 | 92 | 4101.4 |
| 20260904221556 | 69 | 109 | 0.0 | 0.0 | 0.00 | 0.10 | 0.10 | 94 | 4101.7 |
| 20260904221055 | 69 | 108 | 0.0 | 1.0 | 0.00 | 0.10 | 0.10 | 93 | 4101.7 |
| 20260904220550 | 70 | 110 | 0.0 | 0.0 | 0.00 | 0.10 | 0.10 | 93 | 4101.7 |
| 20260904220045 | 70 | 119 | 2.0 | 2.0 | 0.00 | 0.10 | 0.10 | 94 | 4101.4 |
| 20260904215540 | 70 | 129 | 0.0 | 0.0 | 0.00 | 0.10 | 0.10 | 94 | 4101.4 |
| 20260904215036 | 70 | 135 | 1.0 | 1.0 | 0.00 | 0.10 | 0.10 | 94 | 4101.4 |
| 20260904214531 | 70 | 129 | 1.0 | 1.0 | 0.00 | 0.10 | 0.10 | 94 | 4101.4 |
| 20260904214027 | 70 | 134 | 0.0 | 0.0 | 0.00 | 0.10 | 0.10 | 95 | 4101.1 |
| 20260904213524 | 69 | 136 | 0.0 | 1.0 | 0.00 | 0.10 | 0.10 | 95 | 4101.1 |
| 20260904213022 | 68 | 122 | 0.0 | 1.0 | 0.00 | 0.10 | 0.10 | 97 | 4101.1 |
| 20260904212520 | 68 | 122 | 0.0 | 1.0 | 0.00 | 0.10 | 0.10 | 97 | 4101.4 |
| 20260904212015 | 68 | 123 | 1.0 | 1.0 | 0.00 | 0.10 | 0.10 | 98 | 4101.4 |
| 20260904211510 | 68 | 121 | 0.0 | 0.0 | 0.00 | 0.10 | 0.10 | 98 | 4101.7 |
| 20260904211006 | 68 | 99 | 3.0 | 5.0 | 0.00 | 0.10 | 0.10 | 98 | 4101.7 |
| 20260904210505 | 68 | 124 | 0.0 | 0.0 | 0.00 | 0.10 | 0.10 | 99 | 4101.7 |
| 20260904210001 | 68 | 122 | 0.0 | 0.0 | 0.00 | 0.10 | 0.10 | 99 | 4101.7 |
| 20260904205456 | 68 | 116 | 0.0 | 0.0 | 0.00 | 0.10 | 0.10 | 99 | 4101.4 |
| 20260904204953 | 68 | 99 | 0.0 | 1.0 | 0.00 | 0.10 | 0.10 | 99 | 4101.4 |
| 20260904204448 | 68 | 132 | 0.0 | 0.0 | 0.00 | 0.10 | 0.10 | 99 | 4101.7 |
| 20260904203944 | 68 | 107 | 0.0 | 0.0 | 0.00 | 0.10 | 0.10 | 99 | 4101.7 |
| 20260904203440 | 68 | 132 | 1.0 | 1.0 | 0.00 | 0.10 | 0.10 | 98 | 4101.4 |
| 20260904202936 | 68 | 125 | 1.0 | 1.0 | 0.00 | 0.10 | 0.10 | 97 | 4101.7 |
| 20260904202432 | 68 | 112 | 2.0 | 3.0 | 0.00 | 0.10 | 0.10 | 97 | 4101.4 |
| 20260904201928 | 69 | 134 | 1.0 | 2.0 | 0.00 | 0.10 | 0.10 | 96 | 4101.4 |
| 20260904201423 | 69 | 148 | 0.0 | 0.0 | 0.00 | 0.10 | 0.10 | 96 | 4101.4 |
| 20260904200919 | 69 | 112 | 1.0 | 1.0 | 0.00 | 0.10 | 0.10 | 96 | 4101.4 |
| 20260904200417 | 70 | 153 | 2.0 | 2.0 | 0.00 | 0.10 | 0.10 | 94 | 4101.4 |
| 20260904195912 | 71 | 154 | 2.0 | 2.0 | 0.00 | 0.10 | 0.10 | 93 | 4101.4 |
| 20260904195410 | 70 | 135 | 1.0 | 2.0 | 0.00 | 0.10 | 0.10 | 93 | 4101.7 |
| 20260904194904 | 70 | 95 | 1.0 | 1.0 | 0.00 | 0.10 | 0.10 | 94 | 4101.4 |
| 20260904194404 | 71 | 137 | 2.0 | 2.0 | 0.00 | 0.10 | 0.10 | 94 | 4101.4 |
| 20260904193900 | 71 | 111 | 1.0 | 1.0 | 0.00 | 0.10 | 0.10 | 93 | 4101.4 |
| 20260904193354 | 71 | 138 | 2.0 | 2.0 | 0.00 | 0.10 | 0.10 | 92 | 4101.4 |
| 20260904192849 | 71 | 150 | 2.0 | 2.0 | 0.00 | 0.10 | 0.10 | 91 | 4101.4 |
| 20260904192345 | 71 | 127 | 0.0 | 1.0 | 0.00 | 0.10 | 0.10 | 92 | 4101.4 |
| 20260904191842 | 71 | 111 | 1.0 | 2.0 | 0.00 | 0.10 | 0.10 | 91 | 4101.7 |
| 20260904191338 | 71 | 124 | 1.0 | 2.0 | 0.00 | 0.10 | 0.10 | 93 | 4101.7 |
| 20260904190834 | 71 | 137 | 1.0 | 2.0 | 0.00 | 0.10 | 0.10 | 93 | 4101.7 |
| 20260904190330 | 71 | 147 | 1.0 | 2.0 | 0.00 | 0.10 | 0.10 | 92 | 4101.4 |
| 20260904185826 | 70 | 172 | 0.0 | 1.0 | 0.00 | 0.10 | 0.10 | 93 | 4101.4 |
| 20260904185321 | 70 | 65 | 0.0 | 0.0 | 0.00 | 0.10 | 0.10 | 92 | 4101.4 |
| 20260904184821 | 71 | 81 | 0.0 | 0.0 | 0.00 | 0.10 | 0.10 | 92 | 4101.4 |
| 20260904184316 | 71 | 140 | 0.0 | 1.0 | 0.00 | 0.10 | 0.10 | 93 | 4101.4 |
| 20260904183811 | 70 | 217 | 2.0 | 3.0 | 0.00 | 0.10 | 0.10 | 92 | 4101.7 |
| 20260904183306 | 70 | 94 | 2.0 | 3.0 | 0.00 | 0.10 | 0.10 | 92 | 4101.7 |
| 20260904182801 | 70 | 350 | 1.0 | 1.0 | 0.00 | 0.10 | 0.10 | 93 | 4101.4 |
| 20260904182256 | 70 | 155 | 0.0 | 1.0 | 0.00 | 0.10 | 0.10 | 93 | 4102.1 |
| 20260904181752 | 70 | 194 | 1.0 | 2.0 | 0.00 | 0.10 | 0.10 | 93 | 4101.7 |
| 20260904181252 | 70 | 344 | 0.0 | 1.0 | 0.00 | 0.10 | 0.10 | 93 | 4102.1 |
| 20260904180747 | 70 | 93 | 0.0 | 0.0 | 0.00 | 0.10 | 0.10 | 94 | 4102.1 |
| 20260904180243 | 70 | 93 | 1.0 | 2.0 | 0.00 | 0.10 | 0.10 | 93 | 4102.1 |
| 20260904175741 | 69 | 35 | 0.0 | 1.0 | 0.00 | 0.10 | 0.10 | 94 | 4102.1 |
| 20260904175240 | 70 | 61 | 4.0 | 7.0 | 0.00 | 0.10 | 0.10 | 93 | 4101.7 |
| 20260904174735 | 70 | 113 | 1.0 | 1.0 | 0.00 | 0.10 | 0.10 | 94 | 4101.7 |
| 20260904174231 | 69 | 118 | 0.0 | 1.0 | 0.00 | 0.10 | 0.10 | 94 | 4102.1 |
| 20260904173727 | 69 | 165 | 1.0 | 1.0 | 0.00 | 0.10 | 0.10 | 94 | 4101.7 |
| 20260904173227 | 69 | 130 | 1.0 | 1.0 | 0.00 | 0.10 | 0.10 | 95 | 4102.1 |
| 20260904172723 | 69 | 104 | 0.0 | 0.0 | 0.00 | 0.10 | 0.10 | 96 | 4102.1 |
| 20260904172222 | 69 | 164 | 2.0 | 3.0 | 0.00 | 0.10 | 0.10 | 95 | 4102.1 |
| 20260904171717 | 69 | 135 | 1.0 | 3.0 | 0.00 | 0.10 | 0.10 | 95 | 4102.1 |